Time,TemperatureF,DewpointF,PressureIn,WindDirection,WindDirectionDegrees,WindSpeedMPH,WindSpeedGustMPH,Humidity,HourlyPrecipIn,Conditions,Clouds,dailyrainin,SoftwareType,DateUTC
2013-02-27 00:02:00,46.0,-99.9,29.58,ENE,70,18.0,22.0,-999,-99.99,,,-99.99,,2013-02-27 05:02:00,
2013-02-27 00:12:00,46.0,-99.9,29.57,East,80,16.0,20.0,-999,-99.99,,,-99.99,,2013-02-27 05:12:00,
2013-02-27 00:22:00,46.0,-99.9,29.57,ENE,70,16.0,20.0,-999,-99.99,,,-99.99,,2013-02-27 05:22:00,
2013-02-27 00:32:00,45.0,-99.9,29.57,ENE,60,11.0,16.0,-999,-99.99,,,-99.99,,2013-02-27 05:32:00,
2013-02-27 00:42:00,45.0,-99.9,29.58,NNE,20,9.0,11.0,-999,-99.99,,,-99.99,,2013-02-27 05:42:00,
2013-02-27 00:52:00,45.0,-99.9,29.58,North,10,9.0,11.0,-999,-99.99,,,-99.99,,2013-02-27 05:52:00,
2013-02-27 01:02:00,46.0,-99.9,29.57,NE,50,13.0,16.0,-999,-99.99,,,-99.99,,2013-02-27 06:02:00,
2013-02-27 01:11:00,46.0,-99.9,29.57,NE,50,13.0,16.0,-999,-99.99,,,-99.99,,2013-02-27 06:11:00,
2013-02-27 01:20:00,45.0,-99.9,29.55,NE,40,13.0,13.0,-999,-99.99,,,-99.99,,2013-02-27 06:20:00,
2013-02-27 01:22:00,45.0,-99.9,29.57,North,350,9.0,11.0,-999,-99.99,,,-99.99,,2013-02-27 06:22:00,
2013-02-27 01:33:00,45.0,-99.9,29.56,NE,40,13.0,16.0,-999,-99.99,,,-99.99,,2013-02-27 06:33:00,
2013-02-27 01:42:00,45.0,-99.9,29.55,NE,40,13.0,13.0,-999,-99.99,,,-99.99,,2013-02-27 06:42:00,
2013-02-27 01:52:00,45.0,-99.9,29.55,NE,40,13.0,13.0,-999,-99.99,,,-99.99,,2013-02-27 06:52:00,
2013-02-27 02:01:00,45.0,-99.9,29.55,NE,40,13.0,13.0,-999,-99.99,,,-99.99,,2013-02-27 07:01:00,
2013-02-27 02:12:00,45.0,-99.9,29.55,NE,40,13.0,13.0,-999,-99.99,,,-99.99,,2013-02-27 07:12:00,
2013-02-27 02:42:00,45.0,-99.9,29.51,NE,50,13.0,16.0,-999,-99.99,,,-99.99,,2013-02-27 07:42:00,
2013-02-27 02:52:00,45.0,-99.9,29.50,NE,50,13.0,16.0,-999,-99.99,,,-99.99,,2013-02-27 07:52:00,
2013-02-27 03:01:00,45.0,-99.9,29.49,NE,40,11.0,13.0,-999,-99.99,,,-99.99,,2013-02-27 08:01:00,
2013-02-27 03:12:00,44.0,-99.9,29.49,NE,50,11.0,11.0,-999,-99.99,,,-99.99,,2013-02-27 08:12:00,
2013-02-27 03:22:00,44.0,-99.9,29.48,NE,50,11.0,11.0,-999,-99.99,,,-99.99,,2013-02-27 08:22:00,
2013-02-27 03:32:00,44.0,-99.9,29.48,NE,40,9.0,11.0,-999,-99.99,,,-99.99,,2013-02-27 08:32:00,
2013-02-27 03:42:00,44.0,-99.9,29.47,NNE,30,9.0,9.0,-999,-99.99,,,-99.99,,2013-02-27 08:42:00,
2013-02-27 03:53:00,44.0,-99.9,29.47,North,360,7.0,9.0,-999,-99.99,,,-99.99,,2013-02-27 08:53:00,
2013-02-27 04:02:00,44.0,-99.9,29.47,NNW,330,7.0,9.0,-999,-99.99,,,-99.99,,2013-02-27 09:02:00,
2013-02-27 04:12:00,44.0,-99.9,29.47,NNW,330,7.0,9.0,-999,-99.99,,,-99.99,,2013-02-27 09:12:00,
2013-02-27 04:22:00,43.0,-99.9,29.47,NW,320,7.0,7.0,-999,-99.99,,,-99.99,,2013-02-27 09:22:00,
2013-02-27 04:32:00,42.0,-99.9,29.47,NW,320,7.0,9.0,-999,-99.99,,,-99.99,,2013-02-27 09:32:00,
2013-02-27 04:42:00,42.0,-99.9,29.48,WNW,300,7.0,9.0,-999,-99.99,,,-99.99,,2013-02-27 09:42:00,
2013-02-27 04:52:00,42.0,-99.9,29.48,WNW,300,7.0,7.0,-999,-99.99,,,-99.99,,2013-02-27 09:52:00,
2013-02-27 05:01:00,42.0,-99.9,29.48,NW,320,4.0,7.0,-999,-99.99,,,-99.99,,2013-02-27 10:01:00,
2013-02-27 05:12:00,42.0,-99.9,29.48,NW,320,7.0,9.0,-999,-99.99,,,-99.99,,2013-02-27 10:12:00,
2013-02-27 05:22:00,42.0,-99.9,29.48,NW,310,7.0,9.0,-999,-99.99,,,-99.99,,2013-02-27 10:22:00,
2013-02-27 05:32:00,42.0,-99.9,29.48,WNW,300,9.0,9.0,-999,-99.99,,,-99.99,,2013-02-27 10:32:00,
2013-02-27 05:42:00,43.0,-99.9,29.48,WNW,300,7.0,9.0,-999,-99.99,,,-99.99,,2013-02-27 10:42:00,
2013-02-27 05:53:00,43.0,-99.9,29.48,WNW,300,7.0,9.0,-999,-99.99,,,-99.99,,2013-02-27 10:53:00,
2013-02-27 06:03:00,42.0,-99.9,29.48,NW,310,7.0,7.0,-999,-99.99,,,-99.99,,2013-02-27 11:03:00,
2013-02-27 06:12:00,42.0,-99.9,29.48,NW,310,7.0,7.0,-999,-99.99,,,-99.99,,2013-02-27 11:12:00,
2013-02-27 06:22:00,42.0,-99.9,29.48,WNW,290,4.0,7.0,-999,-99.99,,,-99.99,,2013-02-27 11:22:00,
2013-02-27 06:32:00,42.0,-99.9,29.48,WNW,290,7.0,9.0,-999,-99.99,,,-99.99,,2013-02-27 11:32:00,
2013-02-27 06:42:00,43.0,-99.9,29.49,WNW,290,7.0,9.0,-999,-99.99,,,-99.99,,2013-02-27 11:42:00,
2013-02-27 06:52:00,43.0,-99.9,29.49,WNW,290,7.0,9.0,-999,-99.99,,,-99.99,,2013-02-27 11:52:00,
2013-02-27 07:02:00,43.0,-99.9,29.49,WNW,290,7.0,9.0,-999,-99.99,,,-99.99,,2013-02-27 12:02:00,
2013-02-27 07:13:00,43.0,-99.9,29.49,WNW,290,7.0,9.0,-999,-99.99,,,-99.99,,2013-02-27 12:13:00,
2013-02-27 07:22:00,43.0,-99.9,29.49,WNW,290,7.0,9.0,-999,-99.99,,,-99.99,,2013-02-27 12:22:00,
2013-02-27 07:33:00,43.0,-99.9,29.50,West,280,9.0,11.0,-999,-99.99,,,-99.99,,2013-02-27 12:33:00,
2013-02-27 07:42:00,44.0,-99.9,29.51,West,280,11.0,16.0,-999,-99.99,,,-99.99,,2013-02-27 12:42:00,
2013-02-27 07:53:00,44.0,-99.9,29.52,West,280,13.0,20.0,-999,-99.99,,,-99.99,,2013-02-27 12:53:00,
2013-02-27 08:03:00,43.0,-99.9,29.53,West,280,18.0,22.0,-999,-99.99,,,-99.99,,2013-02-27 13:03:00,
2013-02-27 08:12:00,43.0,-99.9,29.54,WNW,290,18.0,22.0,-999,-99.99,,,-99.99,,2013-02-27 13:12:00,
2013-02-27 08:20:00,42.0,-99.9,29.56,WNW,290,16.0,22.0,-999,-99.99,,,-99.99,,2013-02-27 13:20:00,
2013-02-27 08:22:00,42.0,-99.9,29.55,WNW,290,18.0,20.0,-999,-99.99,,,-99.99,,2013-02-27 13:22:00,
2013-02-27 08:32:00,42.0,-99.9,29.55,WNW,290,18.0,20.0,-999,-99.99,,,-99.99,,2013-02-27 13:32:00,
2013-02-27 08:42:00,42.0,-99.9,29.56,WNW,290,16.0,22.0,-999,-99.99,,,-99.99,,2013-02-27 13:42:00,
2013-02-27 08:53:00,42.0,-99.9,29.56,WNW,290,16.0,22.0,-999,-99.99,,,-99.99,,2013-02-27 13:53:00,
2013-02-27 09:02:00,42.0,-99.9,29.56,WNW,290,16.0,22.0,-999,-99.99,,,-99.99,,2013-02-27 14:02:00,
2013-02-27 09:12:00,42.0,-99.9,29.56,WNW,290,16.0,22.0,-999,-99.99,,,-99.99,,2013-02-27 14:12:00,
2013-02-27 09:42:00,43.0,-99.9,29.57,WNW,290,18.0,22.0,-999,-99.99,,,-99.99,,2013-02-27 14:42:00,
2013-02-27 09:53:00,43.0,-99.9,29.58,West,280,16.0,20.0,-999,-99.99,,,-99.99,,2013-02-27 14:53:00,
2013-02-27 10:02:00,44.0,-99.9,29.58,West,280,16.0,22.0,-999,-99.99,,,-99.99,,2013-02-27 15:02:00,
2013-02-27 10:13:00,44.0,-99.9,29.58,WNW,290,18.0,22.0,-999,-99.99,,,-99.99,,2013-02-27 15:13:00,
2013-02-27 10:23:00,45.0,-99.9,29.59,WNW,290,18.0,25.0,-999,-99.99,,,-99.99,,2013-02-27 15:23:00,
2013-02-27 10:32:00,45.0,-99.9,29.59,WNW,290,18.0,22.0,-999,-99.99,,,-99.99,,2013-02-27 15:32:00,
2013-02-27 10:42:00,45.0,-99.9,29.59,WNW,290,18.0,22.0,-999,-99.99,,,-99.99,,2013-02-27 15:42:00,
2013-02-27 10:52:00,46.0,-99.9,29.59,WNW,290,18.0,25.0,-999,-99.99,,,-99.99,,2013-02-27 15:52:00,
2013-02-27 11:02:00,46.0,-99.9,29.60,WNW,300,18.0,22.0,-999,-99.99,,,-99.99,,2013-02-27 16:02:00,
2013-02-27 11:12:00,46.0,-99.9,29.60,WNW,300,18.0,22.0,-999,-99.99,,,-99.99,,2013-02-27 16:12:00,
2013-02-27 11:22:00,47.0,-99.9,29.60,WNW,300,16.0,22.0,-999,-99.99,,,-99.99,,2013-02-27 16:22:00,
2013-02-27 11:32:00,47.0,-99.9,29.60,WNW,300,16.0,22.0,-999,-99.99,,,-99.99,,2013-02-27 16:32:00,
2013-02-27 11:42:00,47.0,-99.9,29.60,WNW,300,16.0,25.0,-999,-99.99,,,-99.99,,2013-02-27 16:42:00,
2013-02-27 11:52:00,47.0,-99.9,29.61,WNW,300,18.0,25.0,-999,-99.99,,,-99.99,,2013-02-27 16:52:00,
2013-02-27 12:02:00,48.0,-99.9,29.61,WNW,300,16.0,20.0,-999,-99.99,,,-99.99,,2013-02-27 17:02:00,
2013-02-27 12:11:00,48.0,-99.9,29.61,WNW,300,16.0,20.0,-999,-99.99,,,-99.99,,2013-02-27 17:11:00,
2013-02-27 12:22:00,48.0,-99.9,29.61,WNW,300,13.0,20.0,-999,-99.99,,,-99.99,,2013-02-27 17:22:00,
2013-02-27 12:32:00,48.0,-99.9,29.61,WNW,290,16.0,18.0,-999,-99.99,,,-99.99,,2013-02-27 17:32:00,
2013-02-27 12:42:00,49.0,-99.9,29.60,WNW,300,13.0,20.0,-999,-99.99,,,-99.99,,2013-02-27 17:42:00,
2013-02-27 12:52:00,49.0,-99.9,29.60,WNW,300,13.0,18.0,-999,-99.99,,,-99.99,,2013-02-27 17:52:00,
2013-02-27 13:02:00,49.0,-99.9,29.60,WNW,290,13.0,20.0,-999,-99.99,,,-99.99,,2013-02-27 18:02:00,
2013-02-27 13:11:00,49.0,-99.9,29.60,WNW,290,13.0,20.0,-999,-99.99,,,-99.99,,2013-02-27 18:11:00,
2013-02-27 13:22:00,51.0,-99.9,29.60,WNW,290,18.0,22.0,-999,-99.99,,,-99.99,,2013-02-27 18:22:00,
2013-02-27 13:32:00,51.0,-99.9,29.60,WNW,290,16.0,22.0,-999,-99.99,,,-99.99,,2013-02-27 18:32:00,
2013-02-27 13:42:00,51.0,-99.9,29.60,WNW,300,13.0,20.0,-999,-99.99,,,-99.99,,2013-02-27 18:42:00,
2013-02-27 13:52:00,51.0,-99.9,29.60,West,280,18.0,25.0,-999,-99.99,,,-99.99,,2013-02-27 18:52:00,
2013-02-27 14:02:00,51.0,-99.9,29.61,WNW,300,13.0,20.0,-999,-99.99,,,-99.99,,2013-02-27 19:02:00,
2013-02-27 14:12:00,51.0,-99.9,29.61,WNW,290,13.0,20.0,-999,-99.99,,,-99.99,,2013-02-27 19:12:00,
2013-02-27 14:22:00,52.0,-99.9,29.61,WNW,290,13.0,18.0,-999,-99.99,,,-99.99,,2013-02-27 19:22:00,
2013-02-27 14:32:00,52.0,-99.9,29.61,WNW,290,13.0,18.0,-999,-99.99,,,-99.99,,2013-02-27 19:32:00,
2013-02-27 14:42:00,52.0,-99.9,29.61,West,270,9.0,13.0,-999,-99.99,,,-99.99,,2013-02-27 19:42:00,
2013-02-27 14:52:00,52.0,-99.9,29.60,West,260,11.0,16.0,-999,-99.99,,,-99.99,,2013-02-27 19:52:00,
2013-02-27 15:02:00,53.0,-99.9,29.60,West,270,9.0,13.0,-999,-99.99,,,-99.99,,2013-02-27 20:02:00,
2013-02-27 15:12:00,53.0,-99.9,29.60,West,270,9.0,13.0,-999,-99.99,,,-99.99,,2013-02-27 20:12:00,
2013-02-27 15:22:00,53.0,-99.9,29.61,West,260,9.0,11.0,-999,-99.99,,,-99.99,,2013-02-27 20:22:00,
2013-02-27 15:32:00,53.0,-99.9,29.61,West,260,9.0,11.0,-999,-99.99,,,-99.99,,2013-02-27 20:32:00,
2013-02-27 15:42:00,53.0,-99.9,29.61,WSW,250,7.0,9.0,-999,-99.99,,,-99.99,,2013-02-27 20:42:00,
2013-02-27 15:53:00,53.0,-99.9,29.61,West,260,7.0,9.0,-999,-99.99,,,-99.99,,2013-02-27 20:53:00,
2013-02-27 16:02:00,53.0,-99.9,29.61,WNW,290,7.0,9.0,-999,-99.99,,,-99.99,,2013-02-27 21:02:00,
2013-02-27 16:12:00,53.0,-99.9,29.61,WNW,290,7.0,9.0,-999,-99.99,,,-99.99,,2013-02-27 21:12:00,
2013-02-27 16:22:00,53.0,-99.9,29.61,West,280,2.0,7.0,-999,-99.99,,,-99.99,,2013-02-27 21:22:00,
2013-02-27 16:32:00,51.0,-99.9,29.61,West,270,7.0,9.0,-999,-99.99,,,-99.99,,2013-02-27 21:32:00,
2013-02-27 16:42:00,49.0,-99.9,29.61,South,170,7.0,11.0,-999,-99.99,,,-99.99,,2013-02-27 21:42:00,
2013-02-27 16:52:00,47.0,-99.9,29.60,SSE,160,7.0,9.0,-999,-99.99,,,-99.99,,2013-02-27 21:52:00,
2013-02-27 17:02:00,46.0,-99.9,29.61,South,170,7.0,7.0,-999,-99.99,,,-99.99,,2013-02-27 22:02:00,
2013-02-27 17:12:00,46.0,-99.9,29.61,South,170,7.0,7.0,-999,-99.99,,,-99.99,,2013-02-27 22:12:00,
2013-02-27 17:22:00,46.0,-99.9,29.61,South,190,7.0,7.0,-999,-99.99,,,-99.99,,2013-02-27 22:22:00,
2013-02-27 17:32:00,46.0,-99.9,29.61,South,190,7.0,7.0,-999,-99.99,,,-99.99,,2013-02-27 22:32:00,
2013-02-27 17:42:00,46.0,-99.9,29.62,SSW,200,7.0,7.0,-999,-99.99,,,-99.99,,2013-02-27 22:42:00,
2013-02-27 17:52:00,45.0,-99.9,29.62,South,190,4.0,7.0,-999,-99.99,,,-99.99,,2013-02-27 22:52:00,
2013-02-27 18:02:00,46.0,-99.9,29.62,SSW,210,4.0,7.0,-999,-99.99,,,-99.99,,2013-02-27 23:02:00,
2013-02-27 18:12:00,46.0,-99.9,29.62,SSW,210,4.0,7.0,-999,-99.99,,,-99.99,,2013-02-27 23:12:00,
2013-02-27 18:22:00,47.0,-99.9,29.63,SW,220,4.0,4.0,-999,-99.99,,,-99.99,,2013-02-27 23:22:00,
2013-02-27 18:32:00,48.0,-99.9,29.63,West,270,2.0,4.0,-999,-99.99,,,-99.99,,2013-02-27 23:32:00,
2013-02-27 18:42:00,49.0,-99.9,29.64,NW,320,2.0,4.0,-999,-99.99,,,-99.99,,2013-02-27 23:42:00,
2013-02-27 18:53:00,49.0,-99.9,29.65,North,0,0.0,4.0,-999,-99.99,,,-99.99,,2013-02-27 23:53:00,
2013-02-27 19:02:00,49.0,-99.9,29.65,WNW,290,2.0,4.0,-999,-99.99,,,-99.99,,2013-02-28 00:02:00,
2013-02-27 19:13:00,49.0,-99.9,29.65,WNW,290,2.0,4.0,-999,-99.99,,,-99.99,,2013-02-28 00:13:00,
2013-02-27 19:22:00,49.0,-99.9,29.65,WNW,300,2.0,4.0,-999,-99.99,,,-99.99,,2013-02-28 00:22:00,
2013-02-27 19:32:00,49.0,-99.9,29.66,NW,320,7.0,9.0,-999,-99.99,,,-99.99,,2013-02-28 00:32:00,
2013-02-27 19:42:00,49.0,-99.9,29.66,NNW,330,9.0,9.0,-999,-99.99,,,-99.99,,2013-02-28 00:42:00,
2013-02-27 19:52:00,49.0,-99.9,29.66,NNW,330,9.0,11.0,-999,-99.99,,,-99.99,,2013-02-28 00:52:00,
2013-02-27 20:01:00,48.0,-99.9,29.66,NNW,330,7.0,9.0,-999,-99.99,,,-99.99,,2013-02-28 01:01:00,
2013-02-27 20:11:00,48.0,-99.9,29.66,NNW,330,7.0,7.0,-999,-99.99,,,-99.99,,2013-02-28 01:11:00,
2013-02-27 20:22:00,48.0,-99.9,29.66,NNW,330,7.0,7.0,-999,-99.99,,,-99.99,,2013-02-28 01:22:00,
2013-02-27 20:32:00,48.0,-99.9,29.66,NNW,340,4.0,7.0,-999,-99.99,,,-99.99,,2013-02-28 01:32:00,
2013-02-27 20:42:00,49.0,-99.9,29.67,NNW,330,4.0,4.0,-999,-99.99,,,-99.99,,2013-02-28 01:42:00,
2013-02-27 20:52:00,49.0,-99.9,29.67,NNW,330,4.0,9.0,-999,-99.99,,,-99.99,,2013-02-28 01:52:00,
2013-02-27 21:02:00,48.0,-99.9,29.67,NNW,330,7.0,9.0,-999,-99.99,,,-99.99,,2013-02-28 02:02:00,
2013-02-27 21:11:00,48.0,-99.9,29.67,NNW,330,7.0,9.0,-999,-99.99,,,-99.99,,2013-02-28 02:11:00,
2013-02-27 21:22:00,47.0,-99.9,29.67,NNW,330,7.0,7.0,-999,-99.99,,,-99.99,,2013-02-28 02:22:00,
2013-02-27 21:32:00,47.0,-99.9,29.67,NNW,330,7.0,7.0,-999,-99.99,,,-99.99,,2013-02-28 02:32:00,
2013-02-27 21:42:00,47.0,-99.9,29.67,NNW,330,7.0,7.0,-999,-99.99,,,-99.99,,2013-02-28 02:42:00,
2013-02-27 21:52:00,47.0,-99.9,29.67,NNW,330,7.0,7.0,-999,-99.99,,,-99.99,,2013-02-28 02:52:00,
2013-02-27 22:02:00,47.0,-99.9,29.67,NW,320,2.0,2.0,-999,-99.99,,,-99.99,,2013-02-28 03:02:00,
2013-02-27 22:11:00,47.0,-99.9,29.66,WNW,300,2.0,2.0,-999,-99.99,,,-99.99,,2013-02-28 03:11:00,
2013-02-27 22:22:00,47.0,-99.9,29.66,WNW,300,2.0,2.0,-999,-99.99,,,-99.99,,2013-02-28 03:22:00,
2013-02-27 22:32:00,47.0,-99.9,29.66,NW,320,2.0,2.0,-999,-99.99,,,-99.99,,2013-02-28 03:32:00,
2013-02-27 22:42:00,47.0,-99.9,29.66,North,0,0.0,2.0,-999,-99.99,,,-99.99,,2013-02-28 03:42:00,
2013-02-27 22:52:00,47.0,-99.9,29.66,SE,140,2.0,4.0,-999,-99.99,,,-99.99,,2013-02-28 03:52:00,
2013-02-27 23:02:00,45.0,-99.9,29.66,SSE,160,2.0,4.0,-999,-99.99,,,-99.99,,2013-02-28 04:02:00,
2013-02-27 23:11:00,45.0,-99.9,29.66,SSE,160,2.0,4.0,-999,-99.99,,,-99.99,,2013-02-28 04:11:00,
2013-02-27 23:22:00,45.0,-99.9,29.65,SSE,160,2.0,4.0,-999,-99.99,,,-99.99,,2013-02-28 04:22:00,
2013-02-27 23:32:00,45.0,-99.9,29.65,SSE,160,2.0,4.0,-999,-99.99,,,-99.99,,2013-02-28 04:32:00,
2013-02-27 23:42:00,44.0,-99.9,29.64,South,170,4.0,4.0,-999,-99.99,,,-99.99,,2013-02-28 04:42:00,
2013-02-27 23:52:00,43.0,-99.9,29.64,South,170,4.0,4.0,-999,-99.99,,,-99.99,,2013-02-28 04:52:00,